This is the latest recevied weather packets stored in our database for station/object W3TMB. If no packets are shown the sender has not sent any weather packets the latest 10 day(s).
| Time | Temp. | Humidity | Pressure | Rain* | Wind** | Luminosity | Snow |
|---|---|---|---|---|---|---|---|
| 1778072122 | 14.44° C | 99% | 1004.4 hPa | 0 mm | - | 46 W/m² | - |
| 1778071819 | 13.89° C | 99% | 1004.3 hPa | 1.27 mm | - | 65 W/m² | - |
| 1778071517 | 13.89° C | 99% | 1004.4 hPa | 1.27 mm | - | 81 W/m² | - |
| 1778071215 | 13.89° C | 99% | 1004.4 hPa | 1.78 mm | - | 51 W/m² | - |
| 1778070913 | 13.89° C | 99% | 1004.6 hPa | 3.05 mm | - | 29 W/m² | - |
| 1778070610 | 13.89° C | 99% | 1004.7 hPa | 3.05 mm | - | 22 W/m² | - |
| 1778070307 | 13.89° C | 99% | 1004.7 hPa | 3.05 mm | - | 39 W/m² | - |
| 1778070005 | 13.89° C | 99% | 1005.1 hPa | 3.05 mm | - | 18 W/m² | - |
| 1778069702 | 13.89° C | 99% | 1005.1 hPa | 3.56 mm | - | 14 W/m² | - |
| 1778069398 | 13.89° C | 99% | 1005.1 hPa | 3.05 mm | - | 12 W/m² | - |
| 1778069096 | 13.89° C | 99% | 1005.2 hPa | 3.05 mm | - | 16 W/m² | - |
| 1778068793 | 13.89° C | 99% | 1004.8 hPa | 3.05 mm | - | 13 W/m² | - |
| 1778068491 | 13.33° C | 99% | 1005.3 hPa | 1.27 mm | - | 14 W/m² | - |
| 1778068189 | 13.33° C | 99% | 1004.9 hPa | 0 mm | - | 10 W/m² | - |
| 1778067886 | 13.33° C | 99% | 1004.8 hPa | 0 mm | - | 12 W/m² | - |
| 1778067585 | 13.33° C | 99% | 1004.4 hPa | 1.78 mm | - | 10 W/m² | - |
| 1778067282 | 13.89° C | 99% | 1004.4 hPa | 1.78 mm | - | 14 W/m² | - |
| 1778066979 | 13.89° C | 99% | 1004.5 hPa | 0 mm | - | 14 W/m² | - |
| 1778066676 | 13.89° C | 99% | 1004.4 hPa | 0 mm | - | 16 W/m² | - |
| 1778066373 | 13.89° C | 99% | 1004.6 hPa | 1.27 mm | - | 12 W/m² | - |
| 1778066071 | 13.89° C | 99% | 1004.5 hPa | 1.27 mm | - | 6 W/m² | - |
| 1778065768 | 13.89° C | 99% | 1004.5 hPa | 0 mm | - | 6 W/m² | - |
| 1778065466 | 13.89° C | 99% | 1004.6 hPa | 0 mm | - | 7 W/m² | - |
| 1778065162 | 13.89° C | 99% | 1004.4 hPa | 1.78 mm | - | 6 W/m² | - |
| 1778064859 | 13.89° C | 99% | 1004.3 hPa | 1.78 mm | - | 4 W/m² | - |
* Rain latest hour (hover to see other rain measurements)
** Current wind speed in m/s (hover to see current wind gust speed)